Location: Frankfurt am Main
(50.1109°N, 8.6821°E)
Time: 00:29:45
(UTC+01:00)

X-37B - Pass Details

Date: 23 October 2021
Orbit: 330 x 341 km, 45.0° (Epoch: 20 November)

Event Time Altitude Azimuth Distance (km) Brightness Sun altitude
Rises 19:18:44 0° 262° (W) 2,126 6.7 -10.4°
Reaches altitude 10° 19:20:56 10° 249° (WSW) 1,286 4.6 -10.7°
Maximum altitude 19:23:23 25° 190° (S) 728 2.1 -11.1°
Enters shadow 19:25:38 11° 134° (SE) 1,210 2.7 -11.5°
